GAOFEN-9 01

Last updated on Mon Sep 07 2026 00:02:45 GMT+0000 (Coordinated Universal Time)

1 40894U 15047A 26249.63919072 .00000410 00000+0 56432-4 0 9990 2 40894 97.6230 281.6187 0026035 230.6615 129.2292 14.83009717592267
UTC large
Height (km)
Speed (km/s)
/
Latitude / Longitude
Inclination (degrees)
Orbital Period (minutes)
Azimuth
Elevation
Range (km)
Doppler Factor

Next 0 passes for location: London (51.5072 / 0.1276)

No passes found over London.
GAOFEN-9 01